Flag for Luxembourg Weather past 2 weeks in Luxembourg, Luxembourg

Now
55 °F

Cool.


Feels Like: 55 °F
Forecast: 61 / 76 °F
Wind: 3 mph from North

Location: Luxembourg Airport

Current Time: Jul 10, 2014 at 3:48:30 AM

Latest Report: Jul 10, 2014 at 2:50 AM


Visibility: N/A

Pressure: 29.71 "Hg

Humidity: 100%

Dew point: 55 °F

Location of LuxembourgLocation

Historic Weather in Luxembourg — Graph

°F

Luxembourg temperature yesterday

Maximum temperature yesterday: 55 °F (at 11:20 PM)
Minimum temperature yesterday: 52 °F (at 1:50 AM)
Average temperature yesterday: 53 °F

Past Weeks' High & Low Weather Summary

 TemperatureHumidityPressure
High82 °F (Jul 3, 5:50 PM)100% (Jun 28, 9:50 PM)30.24 "Hg (Jun 28, 9:50 PM)
Low48 °F (Jun 26, 4:20 AM)23% (Jul 3, 5:50 PM)29.71 "Hg (Jun 29, 3:50 AM)
Average62 °F66%29.97 "Hg
* Reported Jun 25 2:20 AM — Jul 10 2:20 AM, Luxembourg, Weather by CustomWeather, © 2014

Note: Actual official high and low records may vary slightly from our data, if they occured in-between our weather recording intervals... More about our weather records

Advertising

Luxembourg weather history for previous 24 hours

 ConditionsComfort  
Time TempWeatherWind HumidityBarometerVisibility
2:20 AM
Jul 10
55 °FCool.3 mph100%29.71 "HgN/A
1:50 AM55 °FFog.3 mph100%29.71 "Hg1 mi
1:20 AM55 °FLight rain. Fog.2 mph100%29.74 "Hg1 mi
12:50 AM55 °FDrizzle. Fog.2 mph94%29.74 "Hg1 mi
12:20 AM55 °FDrizzle. Fog.3 mph94%29.71 "Hg2 mi
11:50 PM
Jul 9
55 °FPartly cloudy.5 mph94%29.71 "Hg2 mi
11:20 PM55 °FPartly cloudy.7 mph94%29.71 "HgN/A
10:50 PM54 °FPartly cloudy.7 mph100%29.74 "Hg6 mi
10:20 PM54 °FRain. Fog.9 mph100%29.74 "Hg2 mi
9:50 PM54 °FRain. Fog.12 mph100%29.74 "Hg2 mi
9:20 PM54 °FDrizzle. Fog.12 mph100%29.74 "Hg2 mi
8:50 PM54 °FDrizzle. Fog.13 mph100%29.74 "Hg2 mi
8:20 PM54 °FDrizzle. Fog.14 mph100%29.74 "Hg2 mi
7:50 PM54 °FRain. Fog.15 mph94%29.74 "Hg2 mi
7:20 PM54 °FRain. Fog.15 mph94%29.74 "Hg1 mi
6:50 PM54 °FDrizzle. Fog.15 mph94%29.74 "Hg1 mi
6:20 PM54 °FDrizzle. Fog.16 mph94%29.77 "Hg1 mi
5:50 PM52 °FLight rain. Fog.18 mph100%29.77 "Hg1 mi
5:20 PM52 °FDrizzle. Broken clouds.17 mph100%29.77 "Hg6 mi
4:50 PM54 °FRain. Broken clouds.18 mph94%29.77 "Hg5 mi
4:20 PM52 °FRain. Broken clouds.14 mph100%29.80 "Hg6 mi
3:50 PM52 °FRain. Broken clouds.15 mph100%29.80 "Hg4 mi
3:20 PM52 °FRain. Broken clouds.15 mph100%29.80 "Hg4 mi
2:50 PM52 °FRain. Broken clouds.15 mph94%29.83 "Hg4 mi
10:50 AM52 °FLight rain. Cloudy.12 mph100%29.86 "Hg3 mi
9:50 AM52 °FRain. Partly sunny.10 mph94%29.86 "Hg3 mi
8:50 AM52 °FRain. Broken clouds.9 mph94%29.86 "Hg3 mi
7:50 AM52 °FLight rain. Partly sunny.9 mph94%29.89 "Hg4 mi
6:50 AM52 °FLight rain. Scattered clouds.9 mph88%29.89 "Hg6 mi
4:50 AM52 °FPassing clouds.6 mph94%29.89 "HgN/A
3:50 AM52 °FCool.6 mph94%29.89 "HgN/A
Weather by CustomWeather, © 2014

See weather overviewHow to use our weather pages